Find Starlink 30392

NORAD ID: 57855 Int'l Des: 2023-141 Owner: SPXS Country: US Constellation: starlink operational
LEOCIRCULAR

实时位置

正在加载3D地球...

关于 Starlink 30392

正在加载描述...

即将过境

Passes for default location (London). Set your location on the main map for personalized predictions.

高度历史

Loading altitude history...

两行轨道根数

1 57855U 23141R 26125.13123661 .00000774 00000-0 38243-4 0 9992
2 57855 53.1620 21.6595 0000950 70.1933 289.9170 15.30206061148973
Epoch: May 5, 2026 • Age: 11 hours

当前状态

高度 475.2 km
速度 7.63 km/s
星下点 20.34°N, 41.43°W
发射日期 Sep 12, 2023
运行时间 2.6 years
类型 internet

技术详情

分类 Payload
质量 730.00 kg
干质量 700.00 kg
总质量 730.00 kg
长度 0.30 m
直径 4.10 m
跨度 29.00 m
形状 Box + pan
制造商 SPXS
平台类型 Starlink V2M
阶段状态 In Orbit
所有者/国家 SPXS/US

Most Searched